Date;Poids;Temperature;Hygrometrie
2024-04-18 14:42:29;36.6;12;82
2024-04-18 13:38:42;36.5;7;82
2024-04-18 12:34:58;36.4;10;81
2024-04-18 11:31:11;36.5;9;81
2024-04-18 10:27:26;36.6;7;81
2024-04-18 09:23:44;36.7;6;81
2024-04-18 08:20:04;36.8;5;81
2024-04-18 07:16:23;36.9;5;81
2024-04-18 06:12:44;36.9;5;80
2024-04-18 05:09:04;36.8;5;78
2024-04-18 04:05:23;36.8;8;64
2024-04-18 03:01:39;36.7;9;63
2024-04-18 01:57:54;36.7;9;62
2024-04-18 00:54:08;36.8;9;61
2024-04-17 23:50:23;36.8;10;61
2024-04-17 22:46:36;36.9;10;60
2024-04-17 21:42:49;37;10;59
2024-04-17 20:39:01;36.9;11;59
2024-04-17 19:35:12;37;11;58
2024-04-17 18:31:20;37;13;57
2024-04-17 17:27:24;37;15;57
2024-04-17 16:23:29;36.8;15;59
2024-04-17 15:19:34;36.8;15;60
2024-04-17 14:15:36;36.3;15;64
2024-04-17 13:11:42;36.4;14;65
2024-04-17 12:07:49;36.4;13;68
2024-04-17 11:04:00;36.4;10;70
2024-04-17 10:00:13;36.4;9;71
2024-04-17 08:56:28;36.5;7;72
2024-04-17 07:52:46;36.5;7;71
2024-04-17 06:49:04;36.5;7;70
2024-04-17 05:45:21;36.6;7;69
2024-04-17 04:41:38;36.6;7;69
2024-04-17 03:37:56;36.7;7;68
2024-04-17 02:34:13;36.7;7;68
2024-04-17 01:30:31;36.8;7;67
2024-04-17 00:26:47;36.8;8;66
2024-04-16 23:23:02;36.9;9;65
2024-04-16 22:19:16;36.9;10;65
2024-04-16 21:15:29;37;10;64
2024-04-16 20:11:40;37;11;62
2024-04-16 19:07:50;37.1;13;60
2024-04-16 18:03:56;37;15;59
2024-04-16 16:59:57;37.1;15;61
2024-04-16 15:55:59;36.8;15;64
2024-04-16 14:52:02;36.5;14;66
2024-04-16 13:48:08;36.6;13;68
2024-04-16 12:44:16;36.6;12;71
2024-04-16 11:40:26;36.5;11;73
2024-04-16 10:36:39;36.8;9;74
2024-04-16 09:32:55;36.7;8;75
2024-04-16 08:29:11;36.8;8;74
2024-04-16 07:25:27;36.8;9;73
2024-04-16 06:21:41;36.8;9;72
2024-04-16 05:17:56;36.8;9;71
2024-04-16 04:14:10;36.8;9;70
2024-04-16 03:10:24;36.9;9;69
2024-04-16 02:06:36;36.9;10;68
2024-04-16 01:02:49;37;10;68
2024-04-15 23:59:00;37;11;68
2024-04-15 22:55:10;37;12;68
2024-04-15 21:51:19;37.1;13;68
2024-04-15 20:47:26;37.1;14;68
2024-04-15 19:43:31;37;16;67
2024-04-15 18:39:30;36.9;17;67
2024-04-15 17:35:32;37;15;68
2024-04-15 16:31:35;36.9;16;68
2024-04-15 15:27:37;36.9;15;68
2024-04-15 14:23:38;36.8;16;68
2024-04-15 13:19:39;36.7;16;69
2024-04-15 12:15:44;36.7;13;70
2024-04-15 11:11:52;36.7;13;69
2024-04-15 10:07:59;36.8;13;68
2024-04-15 09:04:05;36.8;13;67
2024-04-15 08:00:14;36.8;11;66
2024-04-15 06:56:27;36.9;10;65
2024-04-15 05:52:42;37;9;64
2024-04-15 04:48:56;37;9;64
2024-04-15 03:45:10;37.1;10;63
2024-04-15 02:41:22;37.2;11;62
2024-04-15 01:37:32;37.3;12;61
2024-04-15 00:33:40;37.4;14;59
2024-04-14 23:29:43;37.6;16;58
2024-04-14 22:25:42;37.7;18;57
2024-04-14 21:21:37;37.8;21;55
2024-04-14 20:17:21;37.9;27;53
2024-04-14 19:12:54;37.5;32;52
2024-04-14 18:08:19;37.3;34;52
2024-04-14 17:03:42;37.3;37;53
2024-04-14 15:59:05;37.2;35;55
2024-04-14 14:54:29;36.9;33;58
2024-04-14 13:49:57;36.7;32;62
2024-04-14 12:45:30;36.3;27;66
2024-04-14 11:41:12;36;22;70
2024-04-14 10:37:06;35.7;16;72
2024-04-14 09:33:12;35.7;11;73
2024-04-14 08:29:26;35.8;8;72
2024-04-14 07:25:43;35.9;7;72
2024-04-14 06:22:00;35.9;8;71
2024-04-14 05:18:16;36;8;71
2024-04-14 04:14:31;36.1;9;70
2024-04-14 03:10:45;36.1;10;69
2024-04-14 02:06:56;36.2;11;69
2024-04-14 01:03:05;36.4;12;68
2024-04-13 23:59:12;36.5;14;67
2024-04-13 22:55:14;36.6;16;65
2024-04-13 21:51:13;36.8;19;64
2024-04-13 20:47:02;36.9;24;61
2024-04-13 19:42:36;36.7;33;57
2024-04-13 18:37:58;36.5;38;56
2024-04-13 17:33:17;36.4;36;58
2024-04-13 16:28:39;36.1;35;62
2024-04-13 15:24:03;35.9;34;66
2024-04-13 14:19:30;35.7;31;70
2024-04-13 13:15:03;35.3;27;75
2024-04-13 12:10:44;35.2;22;79
2024-04-13 11:06:35;34.9;17;81
2024-04-13 10:02:40;34.9;11;83
2024-04-13 08:58:54;35.2;7;82
2024-04-13 07:55:11;35.2;5;82
2024-04-13 06:51:30;35.2;5;81
2024-04-13 05:47:48;35.3;6;81
2024-04-13 04:44:06;35.4;7;81
2024-04-13 03:40:22;35.4;7;81
2024-04-13 02:36:37;35.5;9;80
2024-04-13 01:32:50;35.6;10;80
2024-04-13 00:29:01;35.7;11;79
2024-04-12 23:25:10;35.7;12;78
2024-04-12 22:21:15;35.8;15;77
2024-04-12 21:17:14;36;19;76
2024-04-12 20:13:01;36.2;26;73
2024-04-12 19:08:32;35.7;32;71
2024-04-12 18:03:58;35.5;33;73
2024-04-12 16:59:25;35.3;31;76
2024-04-12 15:54:56;35.1;29;79
2024-04-12 14:50:29;34.8;27;82
2024-04-12 13:46:07;34.6;24;85
2024-04-12 12:41:49;34.4;21;86
2024-04-12 11:37:42;34.1;16;87
2024-04-12 10:33:46;34.2;11;88
2024-04-12 09:29:59;34.4;6;88
2024-04-12 07:22:40;34.5;3;88
2024-04-12 06:19:01;34.5;3;88
2024-04-12 05:15:22;34.5;4;88
2024-04-12 04:11:42;34.6;4;88
2024-04-12 03:08:01;34.7;5;88
2024-04-12 02:04:20;34.8;6;88
2024-04-12 01:00:37;34.8;6;88
2024-04-11 23:56:53;34.9;8;87
2024-04-11 22:53:07;35;9;87
2024-04-11 21:49:16;35.1;12;87
2024-04-11 20:45:20;35.2;16;86
2024-04-11 19:41:11;35.1;23;85
2024-04-11 18:36:54;34.8;23;85
2024-04-11 17:32:35;34.5;24;86
2024-04-11 16:28:15;34.1;24;87
2024-04-11 15:24:00;34;21;87
2024-04-11 14:19:49;33.9;20;88
2024-04-11 13:15:41;33.7;18;89
2024-04-11 12:11:38;33.5;16;89
2024-04-11 11:07:40;33.7;12;90
2024-04-11 10:03:49;33.6;8;91
2024-04-11 09:00:08;33.9;4;90
2024-04-11 07:56:30;33.8;2;89
2024-04-11 06:52:53;33.8;2;89
2024-04-11 05:49:14;33.9;3;89
2024-04-11 04:45:34;33.9;5;88
2024-04-11 03:41:52;34;7;89
2024-04-11 02:38:07;34;8;89
2024-04-11 01:34:22;34;8;89
2024-04-11 00:30:35;34.1;9;89
2024-04-10 23:26:49;34.2;9;89
2024-04-10 22:23:01;34.2;10;88
2024-04-10 21:19:10;34.3;11;88
2024-04-10 20:15:17;34.3;13;87
2024-04-10 19:11:17;34.2;16;88
2024-04-10 18:07:17;34;16;88
2024-04-10 17:03:16;34.1;16;88
2024-04-10 15:59:16;34;15;88
2024-04-10 14:55:15;33.8;15;89
2024-04-10 13:51:19;33.8;13;90
2024-04-10 12:47:24;33.8;12;90
2024-04-10 11:43:32;33.8;10;90
2024-04-10 10:39:43;33.8;9;90
2024-04-10 09:35:56;33.8;8;91
2024-04-10 08:32:12;33.9;6;91
2024-04-10 07:28:29;33.8;6;90
2024-04-10 06:24:47;34;6;90
2024-04-10 05:21:04;33.9;6;90
2024-04-10 04:17:21;33.9;6;90
2024-04-10 03:13:38;34;7;90
2024-04-10 02:09:56;34;6;90
2024-04-10 01:06:12;34.1;6;90
2024-04-10 00:02:29;34.1;6;90
2024-04-09 22:58:46;34.2;6;90
2024-04-09 21:55:03;34.4;6;89
2024-04-09 20:51:20;34.4;7;89
2024-04-09 19:47:36;34.4;7;89
2024-04-09 18:43:47;34.2;14;89
2024-04-09 17:39:53;34.2;13;87
2024-04-09 16:35:58;34.4;14;85
2024-04-09 15:31:58;34;15;88
2024-04-09 14:28:01;33.9;12;90
2024-04-09 13:24:09;34;11;90
2024-04-09 12:20:19;34;10;90
2024-04-09 11:20:59;34;9;90
2024-04-09 10:12:43;34;9;89
2024-04-09 09:08:57;34.1;8;89
2024-04-09 08:05:13;34.2;7;88
2024-04-09 07:01:29;34.1;7;88
2024-04-09 05:57:44;34.1;7;88
2024-04-09 04:54:00;34.2;7;87
2024-04-09 03:50:16;34.1;8;87
2024-04-09 02:46:30;34.2;8;86
2024-04-09 01:42:43;34.2;9;82
2024-04-09 00:38:54;34.2;11;81
2024-04-08 23:35:00;34.3;13;81
2024-04-08 22:31:05;34.2;14;80
2024-04-08 21:27:08;34.4;15;79
2024-04-08 20:23:10;34.4;15;78
2024-04-08 19:19:10;34.2;16;77
2024-04-08 18:15:08;34.3;17;76
2024-04-08 17:11:04;34.1;17;76
2024-04-08 16:07:01;34.1;17;78
2024-04-08 15:02:57;33.9;18;79
2024-04-08 13:59:21;33.8;19;80
2024-04-08 12:54:44;33.6;19;81
2024-04-08 11:50:38;33.6;17;83
2024-04-08 10:46:37;33.5;15;84
2024-04-08 09:42:39;33.7;14;84
2024-04-08 08:38:44;33.7;13;84
2024-04-08 07:34:50;33.7;13;84
2024-04-08 06:30:55;33.8;13;84
2024-04-08 05:27:01;33.8;13;84
2024-04-08 04:23:07;33.8;13;84
2024-04-08 03:19:13;33.8;13;83
2024-04-08 02:15:19;33.9;13;83
2024-04-08 01:11:25;34;13;82
2024-04-08 00:07:30;34;13;82
2024-04-07 23:03:34;34;14;81
2024-04-07 21:59:36;34;15;81
2024-04-07 20:55:38;34.1;15;80
2024-04-07 19:51:36;34;17;80
2024-04-07 18:47:34;34;17;81
2024-04-07 17:43:32;34.1;17;82
2024-04-07 16:39:28;33.9;17;83
2024-04-07 15:35:24;33.8;16;84
2024-04-07 14:31:22;33.8;16;84
2024-04-07 13:27:20;33.6;16;85
2024-04-07 12:23:20;33.5;16;85
2024-04-07 11:19:21;33.5;15;86
2024-04-07 10:15:24;33.5;14;86
2024-04-07 09:11:29;33.5;13;86
2024-04-07 08:07:34;33.5;13;86
2024-04-07 07:03:40;33.6;13;86
2024-04-07 05:59:46;33.6;13;86
2024-04-07 04:55:52;33.6;13;86
2024-04-07 03:51:57;33.7;13;86
2024-04-07 02:48:02;33.7;13;85
2024-04-07 01:44:08;33.7;13;85
2024-04-07 00:40:13;33.8;13;85
2024-04-06 23:36:18;33.8;13;85
2024-04-06 22:32:22;33.8;13;85
2024-04-06 21:28:27;33.9;14;84
2024-04-06 20:24:30;33.9;14;84
2024-04-06 19:20:31;34;15;83
2024-04-06 18:16:29;34;17;82
2024-04-06 17:12:21;33.6;22;80
2024-04-06 16:08:05;33.3;22;82
2024-04-06 15:03:52;33.4;20;84
2024-04-06 13:59:42;33.5;20;85
2024-04-06 12:55:34;33.4;19;85
2024-04-06 11:51:27;33.3;18;86
2024-04-06 10:47:23;33.1;16;86
2024-04-06 09:43:25;33.2;13;87
2024-04-06 08:39:32;33.2;12;87
2024-04-06 07:35:40;33.4;11;87
2024-04-06 06:31:50;33.4;10;87
2024-04-06 05:27:59;33.4;11;87
2024-04-06 04:24:08;33.5;11;87
2024-04-06 03:20:16;33.5;11;87
2024-04-06 02:16:24;33.5;12;87
2024-04-06 01:12:30;33.5;12;87
2024-04-06 00:08:37;33.6;13;87
2024-04-05 23:04:41;33.6;12;87
2024-04-05 22:00:47;33.6;13;87
2024-04-05 20:56:52;33.8;13;86
2024-04-05 19:52:55;33.8;16;86
2024-04-05 18:48:47;33.7;20;85
2024-04-05 17:44:34;33.5;23;85
2024-04-05 16:40:18;33.3;23;85
2024-04-05 15:36:02;33.2;23;86
2024-04-05 14:31:46;33.1;22;88
2024-04-05 13:27:33;33;21;88
2024-04-05 12:23:21;32.9;20;89
2024-04-05 11:19:13;32.9;18;90
2024-04-05 10:15:11;32.9;15;90
2024-04-05 09:11:12;33;14;90
2024-04-05 08:07:17;33;12;90
2024-04-05 07:03:23;33.1;12;90
2024-04-05 05:59:29;33.1;12;90
2024-04-05 04:55:37;33.1;11;90
2024-04-05 03:51:44;33.2;11;90
2024-04-05 02:47:52;33.3;12;90
2024-04-05 01:43:58;33.3;13;90
2024-04-05 00:40:03;33.3;13;90
2024-04-04 23:36:06;33.4;14;90
2024-04-04 22:32:09;33.5;14;89
2024-04-04 21:28:10;33.6;15;88
2024-04-04 20:24:08;33.6;18;87
2024-04-04 19:19:55;33.5;22;86
2024-04-04 18:15:34;33.1;27;85
2024-04-04 17:11:07;33;28;87
2024-04-04 16:06:41;32.8;27;89
2024-04-04 15:02:15;32.8;27;90
2024-04-04 13:57:54;33.3;24;89
2024-04-04 12:53:37;33.8;21;90
2024-04-04 11:49:29;34.1;16;91
2024-04-04 10:45:34;34.7;10;91
2024-04-04 09:41:48;35;5;91
2024-04-04 08:38:08;35;3;91
2024-04-04 07:34:28;35.2;3;91
2024-04-04 06:30:49;35.2;3;90
2024-04-04 05:27:09;35.3;3;90
2024-04-04 04:23:29;35.3;4;90
2024-04-04 03:19:49;35.4;5;90
2024-04-04 02:16:07;35.5;5;90
2024-04-04 01:12:24;35.6;6;89
2024-04-04 00:08:40;35.6;7;89
2024-04-03 23:04:53;35.7;9;89
2024-04-03 22:01:04;35.8;11;89
2024-04-03 20:57:11;35.8;13;88
2024-04-03 19:53:10;35.7;18;88
2024-04-03 18:49:02;35.6;19;89
2024-04-03 17:44:50;35.4;22;88
2024-04-03 16:40:36;35.8;21;88
2024-04-03 15:36:25;36.5;19;90
2024-04-03 14:32:20;37.2;18;90
2024-04-03 13:28:16;37.9;15;90
2024-04-03 12:24:14;38.5;16;89
2024-04-03 11:20:14;39.1;14;90
2024-04-03 10:16:19;39.1;11;91
2024-04-03 09:12:28;39.5;9;91
2024-04-03 08:08:42;39.7;8;90
2024-04-03 07:04:54;39.8;9;90
2024-04-03 06:01:05;39.8;9;90
2024-04-03 04:57:17;39.8;9;90
2024-04-03 03:53:28;39.9;10;90
2024-04-03 02:49:39;40;10;90
2024-04-03 01:45:51;40;9;90
2024-04-03 00:42:03;40.1;10;90
2024-04-02 23:38:14;40.2;10;90
2024-04-02 22:34:24;40.2;10;90
2024-04-02 21:30:34;40.3;10;89
2024-04-02 20:26:44;40.3;11;89
2024-04-02 19:22:51;40.3;13;88
2024-04-02 18:18:51;40.2;18;86
2024-04-02 17:14:41;40.1;21;87
2024-04-02 16:10:29;40.2;20;87
2024-04-02 15:06:17;40;21;89
2024-04-02 14:02:07;39.9;18;89
2024-04-02 12:58:05;39.9;15;90
2024-04-02 11:54:08;39.9;12;90
2024-04-02 10:50:18;40;8;91
2024-04-02 09:46:36;40;4;91
2024-04-02 08:42:58;40.1;1;90
2024-04-02 07:39:21;40.1;1;89
2024-04-02 06:35:44;40.1;2;89
2024-04-02 05:32:04;40.2;4;89
2024-04-02 04:28:23;40.3;5;89
2024-04-02 03:24:40;40.3;6;89
2024-04-02 02:20:57;40.2;5;89
2024-04-02 01:17:17;40.3;3;89
2024-04-02 00:13:38;40.3;3;89
2024-04-01 23:09:57;40.4;4;88
2024-04-01 22:06:16;40.5;6;88
2024-04-01 21:02:32;40.5;7;88
2024-04-01 19:58:44;40.6;11;87
2024-04-01 18:54:55;40.6;11;87
2024-04-01 17:50:55;40.6;21;86
2024-04-01 16:46:43;40.2;21;88
2024-04-01 15:42:32;24.8;19;88
2024-04-01 14:38:26;24.7;17;88
2024-04-01 13:34:23;24.7;16;89
2024-04-01 12:30:22;24.6;15;89
2024-04-01 11:26:25;24.6;12;90
2024-04-01 10:22:35;24.7;8;90
2024-04-01 09:18:53;24.7;4;90
2024-04-01 08:15:13;24.7;3;89
2024-04-01 07:11:33;24.7;5;89
2024-04-01 06:07:52;24.7;5;88
2024-04-01 05:04:09;24.7;6;89
2024-04-01 04:00:26;24.8;6;89
2024-04-01 02:56:43;24.8;6;89
2024-04-01 01:52:59;24.9;7;89
2024-04-01 00:49:15;24.9;7;88
2024-03-31 23:45:30;25;8;89
2024-03-31 22:41:45;24.9;9;87
2024-03-31 21:37:53;25;12;88
2024-03-31 20:33:59;25;12;88
2024-03-31 19:30:05;25;12;88
2024-03-31 18:26:10;25;13;87
2024-03-31 17:22:12;25;16;87
2024-03-31 16:18:09;24.9;17;88
2024-03-31 15:14:04;24.8;17;89
2024-03-31 14:10:03;24.9;15;89
2024-03-31 13:06:03;24.9;15;89
2024-03-31 12:02:04;24.8;16;88
2024-03-31 10:58:04;24.7;15;90
2024-03-31 09:54:08;24.7;13;90
2024-03-31 08:50:15;24.7;11;89
2024-03-31 07:46:24;24.8;11;89
2024-03-31 06:42:33;24.8;11;89
2024-03-31 05:38:43;24.8;11;89
2024-03-31 04:34:52;24.9;11;89
2024-03-31 03:31:02;24.8;10;90
2024-03-31 02:27:11;24.9;11;89
2024-03-31 01:23:20;24.9;11;89
2024-03-31 00:19:29;24.9;11;89
2024-03-30 23:15:37;25;11;89
2024-03-30 22:11:47;25.1;11;89
2024-03-30 21:07:57;25.1;11;89
2024-03-30 20:04:05;25.1;13;87
2024-03-30 19:00:05;25.1;17;87
2024-03-30 17:56:01;25.1;15;89
2024-03-30 16:52:02;25.2;15;89
2024-03-30 15:48:02;25.1;16;87
2024-03-30 14:43:59;24.8;17;88
2024-03-30 13:39:54;24.7;18;89
2024-03-30 12:35:51;24.6;15;90
2024-03-30 11:31:55;24.6;11;90
2024-03-30 10:28:06;24.7;9;90
2024-03-30 09:24:19;24.8;9;89
2024-03-30 08:20:32;24.8;8;89
2024-03-30 07:16:45;24.8;9;89
2024-03-30 06:12:57;24.8;10;88
2024-03-30 05:09:07;24.8;11;88
2024-03-30 04:05:14;24.8;12;89
2024-03-30 03:01:19;24.9;12;89
2024-03-30 01:57:25;24.8;12;89
2024-03-30 00:53:30;24.8;12;89
2024-03-29 23:49:36;24.9;12;89
2024-03-29 22:45:42;24.9;12;89
2024-03-29 21:41:48;24.8;13;89
2024-03-29 20:37:52;24.9;13;89
2024-03-29 19:33:56;24.9;14;89
2024-03-29 18:29:58;24.9;15;88
2024-03-29 17:25:56;24.9;16;89
2024-03-29 16:21:58;24.9;15;89
2024-03-29 15:18:00;24.9;15;89
2024-03-29 14:14:02;24.9;15;89
2024-03-29 13:10:04;24.9;14;89
2024-03-29 12:06:07;24.9;14;89
2024-03-29 11:02:09;24.8;15;89
2024-03-29 09:58:12;24.9;13;89
2024-03-29 08:54:17;24.9;13;89
2024-03-29 07:50:23;24.9;12;89
2024-03-29 06:46:29;24.9;12;89
2024-03-29 05:42:35;24.9;13;89
2024-03-29 04:38:41;24.9;12;89
2024-03-29 03:34:50;24.9;11;89
2024-03-29 02:31:00;25;10;89
2024-03-29 01:27:10;25.1;11;89
2024-03-29 00:23:19;25.1;11;89
2024-03-28 23:19:29;25.2;10;89
2024-03-28 22:15:40;25.2;10;89
2024-03-28 21:11:52;25.3;10;88
2024-03-28 20:08:01;25.3;12;87
2024-03-28 19:04:03;25.4;17;87
2024-03-28 17:59:56;25.3;20;86
2024-03-28 16:55:44;25.1;21;87
2024-03-28 15:51:32;24.9;20;88
2024-03-28 14:47:25;24.8;18;88
2024-03-28 13:43:24;24.7;15;88
2024-03-28 12:39:29;25;12;89
2024-03-28 11:35:39;25.1;9;89
2024-03-28 10:31:53;25.1;7;90
2024-03-28 09:28:13;25.2;5;90
2024-03-28 08:24:34;25.2;3;89
2024-03-28 07:20:55;25.3;4;89
2024-03-28 06:17:14;25.3;5;89
2024-03-28 05:13:33;25.4;5;89
2024-03-28 04:09:50;25.3;8;88
2024-03-28 03:06:03;25.1;8;89
2024-03-28 02:02:16;25.2;9;89
2024-03-28 00:58:29;25.1;9;89
2024-03-27 23:54:43;25.3;8;89
2024-03-27 22:50:59;25.3;7;89
2024-03-27 21:47:15;25.3;7;88
2024-03-27 20:43:30;25.3;9;88
2024-03-27 19:39:40;25.4;13;86
2024-03-27 18:35:41;25.4;17;87
2024-03-27 17:31:42;25.4;13;88
2024-03-27 16:27:46;25.4;15;86
2024-03-27 15:23:45;25;17;88
2024-03-27 14:19:44;24.9;15;88
2024-03-27 13:15:50;25.1;12;87
2024-03-27 12:11:57;25.4;11;89
2024-03-27 11:08:08;25.5;7;89
2024-03-27 10:04:26;25.4;5;90
2024-03-27 09:00:45;25.4;3;89
2024-03-27 07:57:07;25.5;3;89
2024-03-27 06:53:27;25.5;3;89
2024-03-27 05:49:47;25.5;4;89
2024-03-27 04:46:08;25.5;4;89
2024-03-27 03:42:28;25.5;4;89
2024-03-27 02:38:49;25.5;4;89
2024-03-27 01:35:09;25.5;4;89
2024-03-27 00:31:29;25.5;4;89
2024-03-26 23:27:49;25.5;4;88
2024-03-26 22:24:08;25.5;5;88
2024-03-26 21:20:28;25.5;5;88
2024-03-26 20:16:47;25.5;5;88
2024-03-26 19:13:06;25.5;6;88
2024-03-26 18:09:24;25.5;6;88
2024-03-26 17:05:41;25.5;6;87
2024-03-26 16:01:58;25.5;6;87
2024-03-26 14:58:15;25.6;6;87
2024-03-26 13:54:33;25.6;7;86
2024-03-26 12:50:48;25.5;9;84
2024-03-26 11:47:00;25.2;10;82
2024-03-26 10:43:12;25.1;9;82
2024-03-26 09:39:26;25.2;8;82
2024-03-26 08:35:40;25.1;8;81
2024-03-26 07:31:54;25.2;9;81
2024-03-26 06:28:08;25.1;9;80
2024-03-26 05:24:22;25.2;9;80
2024-03-26 04:20:36;25.2;9;80
2024-03-26 03:16:48;25.2;9;80
2024-03-26 02:13:02;25.3;9;79
2024-03-26 01:09:16;25.4;8;79
2024-03-26 00:05:31;25.3;8;78
2024-03-25 23:01:47;25.3;8;77
2024-03-25 21:58:01;25.3;9;76
2024-03-25 20:54:13;25.4;9;75
2024-03-25 19:50:27;25.4;9;74
2024-03-25 18:46:40;25.4;9;73
2024-03-25 17:42:54;25.4;9;72
2024-03-25 16:39:06;25.4;10;71
2024-03-25 15:35:15;25.4;12;70
2024-03-25 14:31:22;25.4;14;70
2024-03-25 13:27:28;25.2;13;73
2024-03-25 12:23:35;25.2;11;76
2024-03-25 11:19:46;25.2;9;79
2024-03-25 10:16:04;25.1;2;82
2024-03-25 09:12:29;25.1;0;80
2024-03-25 08:08:56;25.2;0;80
2024-03-25 07:05:23;25.2;0;80
2024-03-25 06:01:51;25.2;0;79
2024-03-25 04:58:18;25.2;0;79
2024-03-25 03:54:45;25.3;0;78
2024-03-25 02:51:11;25.3;0;78
2024-03-25 01:47:37;25.3;1;78
2024-03-25 00:44:02;25.3;2;78
2024-03-24 23:40:25;25.3;3;77
2024-03-24 22:36:46;25.3;5;77
2024-03-24 21:33:05;25.3;7;76
2024-03-24 20:29:20;25.4;9;76
2024-03-24 19:25:32;25.4;11;75
2024-03-24 18:21:42;25.3;11;75
2024-03-24 17:17:52;25.4;11;76
2024-03-24 16:14:01;25.4;12;74
2024-03-24 15:10:09;25.3;12;74
2024-03-24 14:06:19;25.3;10;75
2024-03-24 13:02:31;25.2;8;76
2024-03-24 11:58:47;25.2;8;74
2024-03-24 10:55:01;25.3;8;73
2024-03-24 09:51:18;25.3;7;72
2024-03-24 08:47:36;25.3;6;71
2024-03-24 07:43:55;25.3;7;70
2024-03-24 06:40:13;25.3;6;69
2024-03-24 05:36:32;25.3;6;67
2024-03-24 04:32:50;25.4;7;67
2024-03-24 03:29:09;25.4;6;66
2024-03-24 02:25:26;25.4;8;65
2024-03-24 01:21:43;25.5;8;64
2024-03-24 00:17:58;25.5;8;63
2024-03-23 23:14:13;25.5;8;63
2024-03-23 22:10:29;25.5;8;62
2024-03-23 21:06:44;25.6;9;61
2024-03-23 20:02:56;25.6;12;59
2024-03-23 18:58:58;25.7;17;57
2024-03-23 17:54:55;25.7;18;58
2024-03-23 16:50:51;25.6;18;60
2024-03-23 15:46:48;25.5;17;64
2024-03-23 14:42:47;25.4;16;68
2024-03-23 13:38:48;25.3;15;71
2024-03-23 12:34:52;25.3;14;74
2024-03-23 11:30:57;25.3;14;76
2024-03-23 10:27:06;25.3;11;77
2024-03-23 09:23:18;25.3;10;76
2024-03-23 08:19:35;25.3;10;75
2024-03-23 07:15:44;25.4;11;75
2024-03-23 06:11:53;25.3;13;74
2024-03-23 05:08:04;25.4;9;75
2024-03-23 04:04:20;25.4;8;73
2024-03-23 03:00:37;25.5;8;72
2024-03-23 01:56:53;25.6;8;71
2024-03-23 00:53:07;25.7;9;70
2024-03-22 23:49:20;25.7;10;70
2024-03-22 22:45:30;25.8;12;68
2024-03-22 21:41:37;25.8;15;67
2024-03-22 20:37:38;25.9;19;65
2024-03-22 19:33:24;26.1;26;62
2024-03-22 18:29:00;25.9;28;61
2024-03-22 17:24:32;25.9;29;63
2024-03-22 16:20:05;25.7;29;66
2024-03-22 15:15:39;25.6;28;69
2024-03-22 14:11:14;25.4;26;73
2024-03-22 13:06:55;25.3;22;77
2024-03-22 12:02:48;25.2;17;80
2024-03-22 10:58:53;25.2;11;82
2024-03-22 09:55:07;25.2;7;81
2024-03-22 08:51:26;25.3;5;81
2024-03-22 07:47:46;25.2;5;80
2024-03-22 06:44:07;25.3;5;80
2024-03-22 05:40:26;25.2;6;79
2024-03-22 04:36:43;25.3;7;79
2024-03-22 03:33:00;25.3;8;78
2024-03-22 02:29:15;25.3;9;78
2024-03-22 01:25:27;25.4;10;77
2024-03-22 00:21:39;25.5;11;76
2024-03-21 23:17:48;25.6;12;75
2024-03-21 22:13:55;25.6;14;74
2024-03-21 21:09:57;25.8;17;73
2024-03-21 20:05:53;25.8;20;71
2024-03-21 19:01:40;25.8;24;69
2024-03-21 17:57:17;25.7;27;70
2024-03-21 16:52:54;25.6;26;71
2024-03-21 15:48:34;25.4;24;74
2024-03-21 14:44:15;25.3;23;76
2024-03-21 13:39:59;25.3;21;79
2024-03-21 12:35:50;25.3;18;81
2024-03-21 11:31:50;25;14;83
2024-03-21 10:27:59;25;10;83
2024-03-21 09:24:13;25.1;7;83
2024-03-21 08:20:32;25.1;5;82
2024-03-21 07:16:52;25.1;6;82
2024-03-21 06:13:09;25.1;8;81
2024-03-21 05:09:24;25.1;9;81
2024-03-21 04:05:38;25.1;9;81
2024-03-21 03:01:50;25.1;10;80
2024-03-21 01:58:01;25.2;11;80
2024-03-21 00:54:12;25.2;11;79
2024-03-20 23:50:23;25.2;11;78
2024-03-20 22:46:33;25.3;11;77
2024-03-20 21:42:42;25.3;12;76
2024-03-20 20:38:50;25.4;13;75
2024-03-20 19:34:55;25.4;15;73
2024-03-20 18:30:53;25.4;18;71
2024-03-20 17:26:48;25.4;20;70
2024-03-20 16:22:39;25.3;19;72
2024-03-20 15:18:30;25.4;20;72
2024-03-20 14:14:21;25.3;19;73
2024-03-20 13:10:14;25.1;19;75
2024-03-20 12:06:10;25.2;17;77
2024-03-20 11:02:10;25.2;15;79
2024-03-20 09:58:14;25.1;13;79
2024-03-20 08:54:22;25.2;11;79
2024-03-20 07:50:33;25.1;10;79
2024-03-20 06:46:45;25.2;10;79
2024-03-20 05:42:57;25.3;9;79
2024-03-20 04:39:12;25.3;6;80
2024-03-20 03:35:32;25.3;5;78
2024-03-20 02:31:51;25.3;6;78
2024-03-20 01:28:11;25.4;6;77
2024-03-20 00:24:28;25.5;7;76
2024-03-19 23:20:44;25.5;9;75
2024-03-19 22:16:57;25.6;11;74
2024-03-19 21:13:06;25.7;13;73
2024-03-19 20:09:04;25.8;21;70
2024-03-19 19:04:44;25.8;27;68
2024-03-19 18:00:19;25.7;29;69
2024-03-19 16:55:53;25.5;28;73
2024-03-19 15:51:28;25.4;27;76
2024-03-19 14:47:06;25.3;25;79
2024-03-19 13:42:50;25.1;22;82
2024-03-19 12:38:42;24.9;17;86
2024-03-19 11:36:56;25;11;87
2024-03-19 10:30:59;25;7;88
2024-03-19 09:27:18;25;4;88
2024-03-19 08:23:41;25;2;87
2024-03-19 07:20:04;25.1;3;87
2024-03-19 06:16:27;25.1;3;86
2024-03-19 05:12:49;25.1;4;86
2024-03-19 04:09:10;25.2;5;86
2024-03-19 03:05:30;25.2;5;85
2024-03-19 02:01:49;25.3;6;85
2024-03-19 00:58:07;25.4;6;85
2024-03-18 23:54:25;25.4;7;84
2024-03-18 22:50:40;25.4;9;83
2024-03-18 21:46:52;25.5;11;82
2024-03-18 20:42:58;25.5;15;80
2024-03-18 19:38:55;25.5;20;78
2024-03-18 18:34:41;25.5;24;78
2024-03-18 17:30:23;25.4;23;80
2024-03-18 16:26:08;25.4;21;85
2024-03-18 15:21:57;25;20;87
2024-03-18 14:17:49;25;20;88
2024-03-18 13:13:43;25;16;89
2024-03-18 12:09:44;25.1;15;89
2024-03-18 11:05:47;25.1;14;89
2024-03-18 10:01:54;25.1;11;90
2024-03-18 08:58:05;25;9;89
2024-03-18 07:54:18;25;9;89
2024-03-18 06:50:32;25;8;89
2024-03-18 05:46:47;25.1;7;89
2024-03-18 04:43:03;25;7;89
2024-03-18 03:39:18;25.1;8;88
2024-03-18 02:35:33;25.2;8;88
2024-03-18 01:31:46;25.2;9;87
2024-03-18 00:27:56;25.3;11;87
2024-03-17 23:24:05;25.4;12;86
2024-03-17 22:20:11;25.4;13;86
2024-03-17 21:16:15;25.6;15;85
2024-03-17 20:12:13;25.7;18;83
2024-03-17 19:08:05;25.7;20;82
2024-03-17 18:03:52;25.6;23;81
2024-03-17 16:59:34;25.4;24;81
2024-03-17 15:55:14;25.4;26;83
2024-03-17 14:50:53;25.2;25;86
2024-03-17 13:46:33;25;22;88
2024-03-17 12:42:24;24.9;17;90
2024-03-17 11:38:27;24.8;12;90
2024-03-17 10:34:37;24.8;9;91
2024-03-17 09:30:52;24.8;6;91
2024-03-17 08:27:10;24.8;5;91
2024-03-17 07:23:29;24.8;5;91
2024-03-17 06:19:48;24.9;5;91
2024-03-17 05:16:08;24.9;4;91
2024-03-17 04:12:29;24.9;4;91
2024-03-17 03:08:50;24.9;4;91
2024-03-17 02:05:10;24.9;5;91
2024-03-17 01:01:28;25;6;90
2024-03-16 23:57:45;25.1;7;90
2024-03-16 22:54:01;25.1;8;90
2024-03-16 21:50:14;25.2;9;89
2024-03-16 20:46:23;25.2;13;88
2024-03-16 19:42:23;25.3;18;87
2024-03-16 18:38:14;25.3;21;86
2024-03-16 17:34:00;25.1;21;87
2024-03-16 16:29:50;25;20;88
2024-03-16 15:25:41;24.9;18;90
2024-03-16 14:21:38;25.1;16;90
2024-03-16 13:17:36;24.8;16;90
2024-03-16 12:13:38;24.8;13;91
2024-03-16 11:09:43;24.9;13;91
2024-03-16 10:05:50;24.9;11;91
2024-03-16 09:02:00;24.9;10;91
2024-03-16 07:58:10;24.8;10;91
2024-03-16 06:54:19;24.8;11;91
2024-03-16 05:50:28;24.8;11;91
2024-03-16 04:46:39;24.9;10;91
2024-03-16 03:42:52;24.9;8;91
2024-03-16 02:39:08;25;7;91
2024-03-16 01:35:24;24.9;7;91
2024-03-16 00:31:40;25.1;7;91
2024-03-15 23:27:55;25.1;9;91
2024-03-15 22:24:06;25.2;11;90
2024-03-15 21:20:14;25.3;12;90
2024-03-15 20:16:18;25.3;15;89
2024-03-15 19:12:15;25.3;19;87